sat.trackr.live / text

‹ back to catalog

STARLINK-5040

NORAD 53914 · 2022-119AE

PAYLOAD ACTIVE UNKNOWN

§ Identity

Operator
Country
US
Launch date
2022-09-24
Launch site
AFETR
Launch vehicle
Mass (kg)
RCS (m²)

Purposes: comms

External: N2YO · Heavens-Above · Gunter

§ Orbital elements

Epoch: 2026-05-24T18:52:19.755264Z

Period
95.44 min
Inclination
53.2159°
Eccentricity
0.0001317
Mean motion
15.08838922 rev/d
Perigee alt
538.8 km
Apogee alt
540.7 km
Semi-major
6,917.9 km
B*
3.6685e-5
RAAN
332.4572°
Arg perigee
87.7394°
Mean anomaly
272.3749°
Rev number
20,331

§ Raw data

STARLINK-50401 53914U 22119AE  26144.78633976  .00000296  00000+0  36685-4 0  99912 53914  53.2159 332.4572 0001317  87.7394 272.3749 15.08838922203314

JSON: /api/v1/satellites/53914 · /tle

For live sub-satellite position, see the globe view (requires WebGL).

§ Visibility from observer

Set your observer location to see the next 7 days of passes ≥ 10°. The values pass through the URL so the page stays shareable.

No JS? Fill the form by hand. The geolocation button needs JavaScript.